User: anonymous   Login
Location: Unspecified
(0.0000°N, 0.0000°E)
Time: 08:24:33
(UTC+00:00)
Language:

TOPSAT - Orbit

View from above orbital plane
View from above orbital plane
View from above satellite
View from above satellite

Ground track
Ground track

The orbit data is extracted from the following two-line orbital elements,

1 28891U 05043B   18294.69299458  .00000166  00000-0  42692-4 0  9996
2 28891  97.9553  74.1958 0018336  51.3191 308.9649 14.61350498692134
Epoch (UTC): 21 October 2018 16:37:54
Eccentricity: 0.0018336
inclination: 97.9553°
perigee height: 676 km
apogee height: 702 km
right ascension of ascending node: 74.1958°
argument of perigee: 51.3191°
revolutions per day: 14.61350498
mean anomaly at epoch: 308.9649°
orbit number at epoch: 69213

The dashed part of the orbit path shows where the satellite is in the earth's shadow,  

DLR